[[{"header":{"parameterUnit":"m.s-1","parameterCategory":1,"la1":30.2991,"la2":30.254,"lo1":-89.0895,"lo2":-89.0444,"dy":0.0017,"dx":0.0017,"nx":28,"ny":28,"refTime":"2023-07-29T09:00:00:Z","depth":0,"parameterNumber":2,"parameterNumberName":"U-component_of_WINDS"},"data":[0,0,0,0,0,0,0,0,0,0,0,0,0,0,0,0,0,0,0,0,0,0,0,0,0,0,0,0,0,0,0,0,0,0,0,0,0,0,0,0,0,0,0,0,0,0,0,0,0,0,0,0,0,0,0,0,0,0,1.7408,1.7409,0,1.7436,1.7437,1.7437,1.7363,1.736,1.7358,1.7356,1.739,1.7393,1.7396,0,0,0,0,0,0,0,0,0,0,0,0,0,1.7297,1.7299,1.7408,1.7409,1.7409,1.7436,1.7437,1.7437,1.7363,1.736,1.7357,1.7355,1.7389,1.7393,1.7396,0,0,0,0,0,0,0,0,0,0,0,0,0,1.7337,1.73,1.7408,1.7375,1.7372,1.7436,1.7437,1.7437,1.7364,1.736,1.7356,1.7353,1.7388,1.7392,1.7397,1.7496,0,0,1.7411,1.7413,0,0,0,0,0,0,0,0,1.7335,1.7342,1.738,1.7377,1.7375,1.7392,1.741,1.7457,1.7364,1.7367,1.7356,1.7352,1.7394,1.7398,1.7411,1.7497,1.7499,1.7412,1.7414,1.7416,1.7418,0,0,0,0,0,0,0,1.7332,1.734,1.7419,1.738,1.7377,1.7361,1.7363,1.7419,1.74,1.7367,1.7361,1.7365,1.7392,1.7407,1.7411,1.7499,1.7411,1.7416,1.7418,1.742,1.7671,1.7674,0,0,0,0,0,0,1.7333,1.7338,1.7419,1.742,1.7346,1.7366,1.7368,1.739,1.7399,1.7397,1.7368,1.7362,1.7401,1.7406,1.7412,1.753,1.7416,1.7421,1.7423,1.7667,1.7672,1.7676,0,0,0,0,0,0,1.7331,1.7341,1.7417,1.7378,1.7386,1.7371,1.7397,1.7393,1.7407,1.74,1.7397,1.7386,1.7398,1.7406,1.7476,1.753,1.7423,1.7427,1.7662,1.7668,1.7674,1.7765,0,0,0,0,0,0,1.7328,1.7341,1.7376,1.7379,1.7389,1.7479,1.74,1.7396,1.7415,1.7406,1.7416,1.7415,1.7396,1.7469,1.748,1.7534,1.7431,1.7657,1.7665,1.7672,1.7757,1.7774,1.7787,0,0,0,0,0,1.7324,1.7402,1.7378,1.7389,1.7433,1.7482,1.7488,1.7462,1.7419,1.7456,1.7452,1.7415,1.7522,1.7477,1.7489,1.7545,1.7654,1.7663,1.7671,1.7751,1.777,1.7787,0,0,0,0,0,0,1.7407,1.7401,1.7376,1.7456,1.747,1.7469,1.7515,1.7484,1.7512,1.7503,1.7472,1.7475,1.7552,1.7555,1.7505,1.7643,1.7581,1.7593,1.7637,1.7656,1.7671,1.7669,1.7434,0,0,0,0,0,1.7434,1.7473,1.7467,1.7538,1.7546,1.753,1.755,1.753,1.7544,1.755,1.7551,1.7567,1.7605,1.7631,1.7665,1.7758,1.776,1.7803,1.7818,1.783,1.7841,1.7892,1.7912,1.7704,1.7704,1.7704,0,0,1.7492,1.7493,1.752,1.7555,1.7563,1.7606,1.7535,1.7583,1.7615,1.7558,1.7623,1.7625,1.7642,1.7724,1.7761,1.773,1.7898,1.7841,1.7851,1.7855,1.7903,1.7923,1.794,1.771,1.7709,1.7708,0,0,1.7618,1.7622,1.7683,1.7693,1.7706,1.7695,1.771,1.7715,1.7713,1.7778,1.7737,1.7776,1.7841,1.7855,1.7871,1.8005,1.7972,1.8017,1.8096,1.8147,1.8163,1.8177,1.8227,1.8245,1.8028,1.8028,1.8028,0,1.7688,1.7749,1.7719,1.777,1.7788,1.7736,1.7799,1.7811,1.7836,1.785,1.7815,1.7896,1.7904,1.799,1.8023,1.8037,1.8055,1.8016,1.8163,1.8177,1.819,1.8237,1.8256,1.8033,1.8033,1.8032,1.8032,0,1.7835,1.7878,1.7926,1.795,1.7973,1.803,1.8011,1.8039,1.8017,1.801,1.8079,1.8087,1.8122,1.8141,1.812,1.8225,1.8206,1.8167,1.8105,1.8216,1.8259,1.8277,1.8041,1.8039,1.8038,1.8036,0,0,1.8014,1.8021,1.8039,1.805,1.8062,1.8096,1.8152,1.8185,1.8211,1.823,1.8278,1.8335,1.8299,1.8318,1.8298,1.8343,1.8451,1.8299,1.8299,1.8328,1.857,1.86,1.8621,1.8429,1.8433,1.8435,1.8569,0,1.8139,1.8233,1.8208,1.8303,1.8344,1.8296,1.8345,1.836,1.8355,1.8391,1.8387,1.8429,1.8378,1.8389,1.8431,1.8429,1.85,1.8419,1.8476,1.8478,1.8474,1.8643,1.8675,1.8801,1.8586,1.8589,1.8591,0,1.8298,1.8322,1.8421,1.8427,1.8444,1.8488,1.8518,1.8552,1.8568,1.8562,1.8583,1.8556,1.8614,1.8551,1.8632,1.8578,1.86,1.8603,1.8607,1.8612,1.8542,1.8655,1.884,1.8859,1.8617,1.8615,1.8613,0,1.842,1.8478,1.8544,1.8555,1.8564,1.8597,1.8603,1.8615,1.8638,1.8665,1.868,1.8714,1.8733,1.8761,1.8745,1.87,1.883,1.8765,1.8829,1.883,1.8859,1.8857,1.9051,1.8871,1.8871,1.887,1.887,0,1.8563,1.8626,1.86,1.8641,1.871,1.8683,1.8753,1.8754,1.8766,1.8808,1.877,1.8811,1.8786,1.8826,1.8814,1.8885,1.8893,1.8892,1.8888,1.8896,1.8897,1.8911,1.8902,1.8875,1.8874,1.8873,1.8873,0,1.8712,1.8696,1.8766,1.8769,1.8772,1.8823,1.8827,1.8867,1.886,1.8914,1.8926,1.8916,1.8961,1.8948,1.8997,1.8989,1.9079,1.9063,1.9073,1.907,1.9135,1.913,1.9347,1.9375,1.9175,1.9177,1.9178,0,1.8804,1.8851,1.886,1.8884,1.8893,1.8933,1.8956,1.8932,1.8958,1.8981,1.9019,1.906,1.9092,1.9167,1.9166,1.9205,1.9191,1.9264,1.9196,1.9204,1.9194,1.9192,1.9198,1.9278,1.928,1.9282,1.9284,0,1.8972,1.8962,1.8995,1.9027,1.9055,1.9079,1.91,1.9123,1.91,1.9132,1.9177,1.9202,1.9252,1.9295,1.933,1.9339,1.9309,1.9305,1.9322,1.9331,1.9336,1.9336,1.9111,1.93,1.9298,1.9297,1.9296,1.9296,1.9096,1.9136,1.9149,1.9188,1.9201,1.9222,1.926,1.9258,1.9294,1.9333,1.9317,1.937,1.9387,1.9431,1.9445,1.9487,1.946,1.9484,1.9491,1.9497,1.9507,1.9328,1.9493,1.9493,1.9492,1.9492,1.9492,0,1.9262,1.9268,1.9305,1.9335,1.9367,1.9334,1.9356,1.9385,1.9431,1.945,1.9482,1.9536,1.9578,1.958,1.962,1.9654,1.9642,1.9666,1.9664,1.9667,1.9528,1.951,1.9676,1.9675,1.9675,1.9675,1.9675,1.9675,1.9353,1.942,1.9412,1.9487,1.9493,1.9543,1.9559,1.9579,1.9594,1.9655,1.9689,1.969,1.9703,1.9744,1.9782,1.9782,1.98,1.9829,1.9825,1.9695,1.9677,1.9659,1.9642,1.9833,1.9833,1.996,1.9961,1.9962]},{"header":{"parameterUnit":"m.s-1","parameterCategory":1,"la1":30.2991,"la2":30.254,"lo1":-89.0895,"lo2":-89.0444,"dy":0.0017,"dx":0.0017,"nx":28,"ny":28,"refTime":"2023-07-29T09:00:00:Z","depth":0,"parameterNumber":3,"parameterNumberName":"V-component_of_WINDS"},"data":[0,0,0,0,0,0,0,0,0,0,0,0,0,0,0,0,0,0,0,0,0,0,0,0,0,0,0,0,0,0,0,0,0,0,0,0,0,0,0,0,0,0,0,0,0,0,0,0,0,0,0,0,0,0,0,0,0,0,3.3867,3.3868,0,3.3995,3.3997,3.3998,3.3987,3.3985,3.3983,3.3981,3.4106,3.4111,3.4116,0,0,0,0,0,0,0,0,0,0,0,0,0,3.3608,3.3613,3.3867,3.3869,3.387,3.3995,3.3997,3.3998,3.3987,3.3985,3.3982,3.398,3.4104,3.4111,3.4117,0,0,0,0,0,0,0,0,0,0,0,0,0,3.3727,3.3615,3.3867,3.388,3.3882,3.3995,3.3997,3.3999,3.3988,3.3985,3.3982,3.3979,3.4102,3.411,3.4118,3.4223,0,0,3.4141,3.4144,0,0,0,0,0,0,0,0,3.372,3.3736,3.3876,3.3879,3.3882,3.3972,3.3951,3.4074,3.3988,3.3947,3.3981,3.3978,3.4064,3.4074,3.4104,3.4229,3.4234,3.4142,3.4146,3.415,3.4152,0,0,0,0,0,0,0,3.3712,3.3731,3.3917,3.3878,3.3882,3.3878,3.3892,3.3974,3.402,3.3951,3.395,3.3966,3.4064,3.4097,3.4107,3.4236,3.4142,3.4148,3.4153,3.4156,3.4456,3.4459,0,0,0,0,0,0,3.3701,3.3724,3.3913,3.3921,3.3793,3.3885,3.39,3.3946,3.4019,3.4028,3.3968,3.3965,3.4085,3.4098,3.4112,3.4242,3.415,3.4157,3.4161,3.4453,3.4457,3.446,0,0,0,0,0,0,3.3696,3.3718,3.3908,3.3823,3.3847,3.3893,3.3944,3.395,3.3983,3.4033,3.404,3.3994,3.4084,3.4101,3.4196,3.4246,3.416,3.4167,3.4449,3.4454,3.4458,3.4502,0,0,0,0,0,0,3.3689,3.3717,3.3758,3.3824,3.3851,3.3992,3.3947,3.3955,3.3997,3.3994,3.4058,3.4066,3.4083,3.4185,3.4204,3.4255,3.4173,3.4444,3.4451,3.4457,3.4496,3.4508,3.4518,0,0,0,0,0,3.3679,3.3763,3.376,3.3783,3.3904,3.3995,3.4011,3.403,3.4001,3.4043,3.4075,3.4064,3.4237,3.4195,3.4216,3.427,3.4441,3.4449,3.4456,3.4492,3.4506,3.4518,0,0,0,0,0,0,3.3699,3.3772,3.3769,3.3877,3.3931,3.3993,3.4046,3.4044,3.4105,3.4099,3.4118,3.4133,3.423,3.4259,3.4211,3.4377,3.4335,3.4347,3.4355,3.4369,3.4379,3.437,3.418,0,0,0,0,0,3.3717,3.3786,3.3845,3.3935,3.3962,3.4,3.404,3.4051,3.4105,3.4127,3.4166,3.4218,3.4285,3.4328,3.4392,3.45,3.4515,3.4548,3.4559,3.4567,3.4578,3.4639,3.4655,3.4485,3.4485,3.4485,0,0,3.3752,3.3801,3.3843,3.394,3.3983,3.4053,3.4018,3.4094,3.4146,3.4138,3.4232,3.4262,3.4322,3.4425,3.4473,3.4453,3.4628,3.4577,3.4583,3.4589,3.4648,3.4665,3.4679,3.449,3.4489,3.4488,0,0,3.3854,3.3898,3.3978,3.4022,3.4088,3.4113,3.4133,3.4197,3.4218,3.4313,3.4309,3.437,3.4484,3.4527,3.4564,3.4685,3.4678,3.4705,3.4761,3.482,3.4834,3.4846,3.489,3.4906,3.4715,3.4715,3.4715,0,3.389,3.3998,3.4019,3.4097,3.414,3.4139,3.422,3.4261,3.4343,3.4373,3.435,3.4495,3.4534,3.4648,3.4678,3.4708,3.473,3.4698,3.483,3.4843,3.4854,3.4897,3.4913,3.4718,3.4718,3.4717,3.4717,0,3.4039,3.4114,3.4171,3.4254,3.4303,3.4382,3.4415,3.4462,3.4469,3.4496,3.4593,3.4641,3.4716,3.4743,3.4749,3.4859,3.4845,3.4826,3.4785,3.4873,3.4914,3.493,3.4722,3.4721,3.472,3.472,0,0,3.4156,3.4252,3.4273,3.4311,3.4385,3.4443,3.4521,3.4597,3.4638,3.4694,3.4761,3.4859,3.4843,3.4885,3.4896,3.4948,3.5043,3.4923,3.4924,3.4944,3.5168,3.5183,3.5202,3.5038,3.5041,3.5044,3.5164,0,3.4266,3.4409,3.4431,3.4556,3.4626,3.4627,3.4696,3.4748,3.4775,3.4838,3.4867,3.4937,3.491,3.4936,3.4987,3.502,3.5088,3.5012,3.51,3.5103,3.5087,3.5223,3.5238,3.5349,3.518,3.5182,3.5184,0,3.4413,3.4478,3.4611,3.4677,3.4707,3.4769,3.4842,3.4901,3.496,3.4977,3.5026,3.5031,3.5112,3.5067,3.5179,3.5127,3.5165,3.5186,3.5191,3.5201,3.515,3.5237,3.5384,3.5402,3.5209,3.5207,3.5205,0,3.4487,3.4606,3.4702,3.4735,3.4814,3.4858,3.4893,3.495,3.4994,3.5057,3.5086,3.5156,3.5194,3.5248,3.5272,3.5237,3.5383,3.534,3.5399,3.5399,3.543,3.5428,3.5587,3.5453,3.5453,3.5452,3.5452,0,3.4608,3.4689,3.4737,3.4796,3.4887,3.4912,3.5001,3.5034,3.5085,3.515,3.5153,3.5214,3.5241,3.5306,3.5324,3.5416,3.5432,3.5448,3.5452,3.5448,3.5446,3.5473,3.5467,3.5457,3.5456,3.5455,3.5454,0,3.4705,3.4741,3.4845,3.4913,3.4932,3.4997,3.5054,3.5111,3.5139,3.5221,3.5242,3.5286,3.5362,3.5391,3.5483,3.5496,3.5601,3.5599,3.5583,3.5584,3.5642,3.5637,3.5825,3.5852,3.5699,3.57,3.5701,0,3.4781,3.4844,3.492,3.4965,3.5003,3.5074,3.5121,3.5148,3.5196,3.527,3.5318,3.5395,3.5458,3.5579,3.5618,3.5689,3.5688,3.5749,3.5699,3.5694,3.5691,3.5688,3.5695,3.5759,3.576,3.5762,3.5763,0,3.4911,3.4926,3.4995,3.5071,3.5127,3.5187,3.5245,3.5281,3.5317,3.5371,3.545,3.5499,3.5595,3.5672,3.5745,3.5779,3.5777,3.5779,3.5796,3.5794,3.5782,3.5791,3.5609,3.5774,3.5773,3.5772,3.5771,3.5771,3.5001,3.5058,3.5122,3.5199,3.5246,3.5301,3.5359,3.5396,3.5463,3.5546,3.5557,3.5642,3.5701,3.58,3.5838,3.5904,3.5888,3.5913,3.592,3.5926,3.5931,3.5771,3.5917,3.5917,3.5917,3.5917,3.5916,0,3.5133,3.5175,3.5245,3.5329,3.5389,3.5385,3.5449,3.55,3.5576,3.5632,3.5695,3.5788,3.5862,3.5908,3.5983,3.6028,3.6029,3.6046,3.6044,3.6052,3.5941,3.5919,3.6045,3.6044,3.6044,3.6044,3.6044,3.6044,3.5209,3.5307,3.533,3.5451,3.5491,3.5578,3.5615,3.5666,3.5712,3.5816,3.5879,3.5909,3.5961,3.6041,3.6109,3.612,3.6148,3.6168,3.6178,3.6073,3.606,3.6047,3.6026,3.6173,3.6173,3.6284,3.6285,3.6286]}]]